EW2013 Weather Reports


time (UTC)temp
F
wind
direction
speed
knots
gust
knots
rain 1hr
in
rain 24hr
in
rain mn
in
humidity
%
barometer
mb
20260505102205 41 19 1.7 7.8 0.09 0.38 0.17 92 1015.1
20260505101704 41 49 1.7 7.8 0.09 0.38 0.17 93 1014.9
20260505101205 41 27 1.7 7.0 0.09 0.37 0.16 92 1014.8
20260505100204 41 5 0.9 7.0 0.07 0.35 0.14 92 1014.7
20260505095704 42 25 1.7 5.2 0.05 0.33 0.12 92 1014.7
20260505095204 42 44 0.9 7.0 0.04 0.32 0.11 92 1014.6
20260505094704 42 53 0.9 7.0 0.03 0.31 0.10 92 1014.5
20260505094205 42 65 0.9 7.0 0.02 0.30 0.09 92 1014.5
20260505093704 42 44 1.7 7.0 0.02 0.29 0.08 92 1014.4
20260505092704 42 29 1.7 7.0 0.03 0.29 0.08 92 1014.4
20260505092204 42 5 2.6 8.7 0.03 0.29 0.08 92 1014.4
20260505091704 42 11 2.6 8.7 0.04 0.29 0.08 92 1014.1
20260505091204 42 336 2.6 8.7 0.03 0.28 0.07 92 1014.0
20260505090704 42 46 2.6 8.7 0.04 0.28 0.07 92 1013.9
20260505090204 42 5 1.7 8.7 0.04 0.28 0.07 92 1014.1
20260505085705 43 26 1.7 10.4 0.04 0.28 0.07 92 1014.0
20260505084206 43 17 3.5 12.2 0.06 0.27 0.06 91 1014.0
20260505083704 44 350 2.6 12.2 0.06 0.27 0.06 92 1013.9
20260505083204 44 26 1.7 7.0 0.05 0.26 0.05 91 1013.9
20260505082704 44 349 0.9 7.8 0.05 0.26 0.05 91 1013.9
20260505082204 44 355 0.9 7.8 0.05 0.26 0.05 91 1013.9
20260505081705 44 355 0.9 7.8 0.04 0.25 0.04 91 1014.0
20260505081204 44 9 1.7 7.8 0.04 0.25 0.04 91 1014.1
20260505080704 44 337 2.6 7.8 0.03 0.24 0.03 91 1014.0
20260505080205 44 355 2.6 7.8 0.03 0.24 0.03 91 1013.9
20260505075204 44 26 2.6 9.6 0.02 0.23 0.02 90 1013.9
20260505074704 44 28 3.5 9.6 0.01 0.22 0.01 90 1013.9
20260505074204 45 9 2.6 9.6 0.00 0.21 0.00 90 1014.0
20260505073704 45 340 1.7 9.6 0.00 0.21 0.00 90 1014.0
20260505072704 47 15 3.5 6.1 0.00 0.21 0.00 89 1013.9
20260505072204 48 317 0.9 5.2 0.00 0.21 0.00 91 1013.9
20260505071205 49 189 0.0 0.0 0.00 0.21 0.00 91 1013.9
20260505070704 48 189 0.0 0.0 0.00 0.21 0.00 91 1013.6
20260505070204 48 189 0.0 0.0 0.00 0.21 0.00 91 1013.5
20260505065704 48 189 0.0 0.0 0.00 0.21 0.00 90 1013.5
20260505065204 48 189 0.0 0.0 0.00 0.21 0.00 91 1013.4
20260505064704 48 189 0.0 0.0 0.00 0.21 0.00 91 1013.3
20260505064206 48 189 0.0 0.0 0.00 0.21 0.00 91 1013.3
20260505063704 48 189 0.0 0.0 0.00 0.21 0.00 90 1013.3
20260505063204 48 189 0.0 0.0 0.00 0.21 0.00 90 1013.4
20260505062704 48 189 0.0 0.0 0.00 0.21 0.00 90 1013.4
20260505061704 48 189 0.0 0.0 0.00 0.21 0.00 90 1013.3
20260505061204 48 189 0.0 0.0 0.00 0.21 0.00 90 1013.4
20260505060204 48 189 0.0 0.0 0.00 0.21 0.21 90 1013.4
20260505055704 48 189 0.0 0.0 0.00 0.21 0.21 90 1013.4
20260505055204 48 189 0.0 0.0 0.00 0.21 0.21 90 1013.4
20260505054704 48 189 0.0 0.0 0.00 0.21 0.21 89 1013.4
20260505054205 48 189 0.0 0.0 0.00 0.21 0.21 89 1013.3
20260505053704 48 189 0.0 0.0 0.00 0.21 0.21 89 1013.3
20260505053205 48 189 0.0 0.0 0.00 0.21 0.21 89 1013.1
20260505052204 48 189 0.0 0.0 0.00 0.21 0.21 89 1013.3
20260505051704 48 189 0.0 0.0 0.00 0.21 0.21 89 1013.2
20260505051204 48 189 0.0 0.0 0.00 0.21 0.21 89 1013.1
20260505050704 48 189 0.0 0.0 0.00 0.21 0.21 89 1013.1
20260505050204 48 189 0.0 0.0 0.00 0.21 0.21 88 1013.1
20260505041704 49 190 0.9 4.3 0.06 0.21 0.21 88 1013.3
20260505041204 49 198 0.9 4.3 0.07 0.21 0.21 88 1013.5
20260505040205 49 244 0.9 2.6 0.11 0.21 0.21 88 1013.5
20260505035704 49 215 0.0 4.3 0.13 0.21 0.21 88 1013.4
20260505035205 49 213 0.9 5.2 0.15 0.21 0.21 87 1013.2
20260505034704 49 206 0.9 5.2 0.16 0.20 0.20 87 1013.4
20260505034205 49 227 1.7 5.2 0.17 0.19 0.19 87 1013.4
20260505033704 50 231 0.9 4.3 0.18 0.19 0.19 87 1013.6
20260505032705 50 261 0.9 3.5 0.16 0.17 0.17 86 1013.5
20260505032204 50 269 0.9 6.1 0.15 0.16 0.16 86 1013.5
20260505031205 50 271 1.7 7.0 0.12 0.13 0.13 84 1013.3
20260505030704 50 258 1.7 7.0 0.11 0.12 0.12 83 1013.3
20260505030205 50 293 1.7 5.2 0.09 0.10 0.10 82 1013.3
20260505025704 51 289 1.7 5.2 0.06 0.07 0.07 81 1013.1
20260505025204 51 286 1.7 4.3 0.05 0.06 0.06 79 1012.9
20260505024705 51 277 0.9 3.5 0.03 0.03 0.03 78 1012.8
20260505024204 52 290 0.9 2.6 0.01 0.01 0.01 77 1012.7
20260505023705 52 294 0.9 3.5 0.01 0.01 0.01 76 1012.7
20260505022704 52 295 0.9 3.5 0.01 0.01 0.01 75 1012.5
20260505021704 52 295 0.9 2.6 0.01 0.01 0.01 74 1012.2
20260505021205 53 296 0.0 2.6 0.01 0.01 0.01 73 1012.2
20260505020704 53 296 0.0 2.6 0.01 0.01 0.01 72 1012.2
20260505020205 53 296 0.9 3.5 0.01 0.01 0.01 72 1012.4
20260505015704 53 296 0.9 4.3 0.01 0.01 0.01 70 1012.5
20260505015205 53 294 0.9 4.3 0.01 0.01 0.01 69 1012.4
20260505014204 54 319 1.7 7.8 0.00 0.00 0.00 67 1012.2
20260505013704 54 325 1.7 7.8 0.00 0.00 0.00 66 1012.0
20260505013204 54 315 2.6 7.8 0.00 0.00 0.00 65 1012.0
20260505012204 56 0 2.6 8.7 0.00 0.00 0.00 62 1012.2
20260505011704 57 323 2.6 8.7 0.00 0.00 0.00 62 1012.1
20260505011204 58 9 1.7 8.7 0.00 0.00 0.00 59 1011.9
20260505005705 58 305 0.9 4.3 0.00 0.00 0.00 59 1011.8
20260505005204 58 304 0.9 3.5 0.00 0.00 0.00 58 1011.7
20260505004704 58 302 0.9 4.3 0.00 0.00 0.00 57 1011.7
20260505004204 58 300 0.9 4.3 0.00 0.00 0.00 57 1011.5
20260505003705 58 300 0.9 4.3 0.00 0.00 0.00 57 1011.4
20260505003205 58 300 0.0 5.2 0.00 0.00 0.00 57 1011.4
20260505002704 58 300 0.9 5.2 0.00 0.00 0.00 57 1011.3
20260505002205 58 300 1.7 4.3 0.00 0.00 0.00 57 1011.4
20260505001704 58 333 0.9 4.3 0.00 0.00 0.00 57 1011.3
20260505001204 58 333 0.9 5.2 0.00 0.00 0.00 58 1011.3
20260505000704 58 331 1.7 6.1 0.00 0.00 0.00 59 1011.3
20260504235704 59 5 2.6 7.0 0.00 0.00 0.00 57 1011.3
20260504234204 60 341 0.0 4.3 0.00 0.00 0.00 53 1011.2
20260504233705 60 290 0.9 5.2 0.00 0.00 0.00 52 1011.2
20260504233204 60 290 1.7 5.2 0.00 0.00 0.00 52 1011.1
20260504232204 60 338 0.9 6.1 0.00 0.00 0.00 49 1011.2
20260504231705 60 340 1.7 16.5 0.00 0.00 0.00 48 1011.1
20260504231204 60 213 2.6 16.5 0.00 0.00 0.00 54 1011.2
20260504230705 60 211 5.2 16.5 0.00 0.00 0.00 52 1011.2
20260504225704 62 267 4.3 13.0 0.00 0.00 0.00 47 1011.2
20260504225204 62 296 4.3 13.0 0.00 0.00 0.00 44 1011.2
20260504224705 63 290 4.3 7.8 0.00 0.00 0.00 42 1011.2
20260504224205 63 286 4.3 7.8 0.00 0.00 0.00 41 1011.1
20260504223705 63 271 2.6 6.1 0.00 0.00 0.00 39 1011.0
20260504222704 64 13 0.0 6.1 0.00 0.00 0.00 38 1010.7
20260504222205 63 13 0.9 6.1 0.00 0.00 0.00 38 1010.6
20260504221704 63 13 1.7 7.8 0.00 0.00 0.00 38 1010.4
20260504221204 63 338 2.6 7.8 0.00 0.00 0.00 39 1010.1
20260504220705 63 340 3.5 10.4 0.00 0.00 0.00 40 1010.0
20260504220204 63 39 3.5 10.4 0.00 0.00 0.00 40 1010.0
20260504215704 64 32 4.3 10.4 0.00 0.00 0.00 39 1009.9
20260504214705 64 63 4.3 10.4 0.00 0.00 0.00 39 1009.8
20260504214204 64 347 5.2 11.3 0.00 0.00 0.00 40 1009.9
20260504213704 65 37 5.2 16.5 0.00 0.00 0.00 40 1010.0
20260504213204 65 21 6.1 16.5 0.00 0.00 0.00 38 1010.1
20260504212705 66 348 6.1 16.5 0.00 0.00 0.00 37 1010.1
20260504212204 67 355 6.1 12.2 0.00 0.00 0.00 35 1010.1
20260504211704 67 22 5.2 13.9 0.00 0.00 0.00 35 1010.1
20260504210704 65 344 5.2 13.9 0.00 0.00 0.00 38 1010.4
20260504205704 65 284 4.3 10.4 0.00 0.00 0.00 35 1010.6
20260504205204 67 349 2.6 8.7 0.00 0.00 0.00 32 1010.6
20260504204704 68 40 2.6 13.0 0.00 0.00 0.00 30 1010.5
20260504204205 69 46 3.5 13.0 0.00 0.00 0.00 28 1010.4
20260504203704 69 90 5.2 13.9 0.00 0.00 0.00 28 1010.0
20260504203204 70 132 5.2 13.9 0.00 0.00 0.00 34 1009.9
20260504202704 69 182 6.1 13.9 0.00 0.00 0.00 40 1009.8
20260504202205 69 146 6.1 13.0 0.00 0.00 0.00 33 1009.8
20260504201704 69 199 6.1 13.0 0.00 0.00 0.00 29 1009.6
20260504200704 69 244 3.5 10.4 0.00 0.00 0.00 27 1009.7
20260504200204 71 263 3.5 10.4 0.00 0.00 0.00 26 1009.8
20260504195704 72 192 5.2 10.4 0.00 0.00 0.00 24 1009.9
20260504195204 73 223 4.3 8.7 0.00 0.00 0.00 20 1009.9
20260504194704 74 243 3.5 8.7 0.00 0.00 0.00 20 1009.6
20260504194204 74 264 2.6 8.7 0.00 0.00 0.00 19 1009.3
20260504193704 74 263 3.5 8.7 0.00 0.00 0.00 18 1009.4
20260504193204 74 287 3.5 8.7 0.00 0.00 0.00 17 1009.3
20260504192705 75 328 2.6 7.8 0.00 0.00 0.00 17 1009.2
20260504192204 75 278 2.6 7.8 0.00 0.00 0.00 16 1009.2
20260504191704 75 311 2.6 7.8 0.00 0.00 0.00 18 1009.2
20260504191204 74 284 3.5 7.8 0.00 0.00 0.00 19 1009.2
20260504190705 74 292 3.5 7.8 0.00 0.00 0.00 18 1009.2
20260504190204 74 249 2.6 6.1 0.00 0.00 0.00 20 1009.2
20260504185704 73 290 2.6 8.7 0.00 0.00 0.00 20 1009.3
20260504185205 73 303 3.5 8.7 0.00 0.00 0.00 20 1009.3
20260504184704 73 270 3.5 10.4 0.00 0.00 0.00 21 1009.4
20260504184205 73 300 3.5 10.4 0.00 0.00 0.00 20 1009.4
20260504183704 73 265 4.3 10.4 0.00 0.00 0.00 21 1009.6
20260504183205 74 269 5.2 10.4 0.00 0.00 0.00 21 1009.6
20260504182704 74 321 5.2 10.4 0.00 0.00 0.00 21 1009.7
20260504182204 74 273 4.3 12.2 0.00 0.00 0.00 21 1009.7
20260504181704 74 283 5.2 12.2 0.00 0.00 0.00 22 1009.8
20260504181204 73 283 5.2 12.2 0.00 0.00 0.00 23 1009.9
20260504180704 74 322 4.3 10.4 0.00 0.00 0.00 22 1010.0
20260504180204 74 302 5.2 13.0 0.00 0.00 0.00 24 1010.1
20260504175704 73 285 5.2 15.6 0.00 0.00 0.00 24 1010.3
20260504175204 72 306 6.1 15.6 0.00 0.00 0.00 25 1010.3
20260504174705 72 294 7.0 15.6 0.00 0.00 0.00 25 1010.4
20260504174205 72 277 6.1 15.6 0.00 0.00 0.00 25 1010.6
20260504173705 72 285 7.0 15.6 0.00 0.00 0.00 25 1010.7
20260504173204 71 322 7.8 15.6 0.00 0.00 0.00 26 1010.7
20260504172704 70 271 7.8 15.6 0.00 0.00 0.00 26 1010.8
20260504172204 70 289 7.8 15.6 0.00 0.00 0.00 27 1010.7
20260504171705 70 275 6.1 14.8 0.00 0.00 0.00 27 1010.8
20260504171204 70 274 6.1 14.8 0.00 0.00 0.00 28 1010.8
20260504170205 69 272 4.3 10.4 0.00 0.00 0.00 29 1011.0
20260504160204 65 265 3.5 7.8 0.00 0.00 0.00 31 1011.1
20260504150704 62 283 1.7 4.3 0.00 0.00 0.00 32 1011.2
20260504150204 62 282 0.9 4.3 0.00 0.00 0.00 33 1011.2
20260504141205 58 227 2.6 5.2 0.00 0.00 0.00 34 1011.4
20260504140704 56 236 2.6 5.2 0.00 0.00 0.00 36 1011.4
20260504140205 55 234 2.6 5.2 0.00 0.00 0.00 38 1011.4
20260504130204 47 188 0.0 0.0 0.00 0.00 0.00 54 1011.2
20260504120204 49 188 0.0 2.6 0.00 0.00 0.00 45 1011.0
20260504110705 48 146 1.7 4.3 0.00 0.00 0.00 46 1011.3
20260504110204 48 146 1.7 4.3 0.00 0.00 0.00 46 1011.3